[[{"header":{"parameterUnit":"m.s-1","parameterCategory":1,"la1":30.2991,"la2":30.254,"lo1":-89.0895,"lo2":-89.0444,"dy":0.0017,"dx":0.0017,"nx":28,"ny":28,"refTime":"2025-03-15T03:00:00:Z","depth":0,"parameterNumber":2,"parameterNumberName":"U-component_of_WINDS"},"data":[0,0,0,0,0,0,0,0,0,0,0,0,0,0,0,0,0,0,0,0,0,0,0,0,0,0,0,0,0,0,0,0,0,0,0,0,0,0,0,0,0,0,0,0,0,0,0,0,0,0,0,0,0,0,0,0,0,0,5.2019,5.202,0,5.2091,5.2091,5.2092,5.2021,5.2018,5.2015,5.2012,5.2087,5.2092,5.2096,0,0,0,0,0,0,0,0,0,0,0,0,0,5.1824,5.1828,5.2019,5.202,5.2021,5.2091,5.2091,5.2092,5.2021,5.2018,5.2014,5.2011,5.2086,5.2091,5.2097,0,0,0,0,0,0,0,0,0,0,0,0,0,5.1903,5.1829,5.2019,5.1994,5.1992,5.209,5.2092,5.2093,5.2022,5.2018,5.2013,5.2009,5.2084,5.2091,5.2097,5.2225,0,0,5.2119,5.2122,0,0,0,0,0,0,0,0,5.1899,5.1911,5.1997,5.1996,5.1994,5.2042,5.205,5.2137,5.2023,5.2011,5.2012,5.2007,5.2076,5.2083,5.2106,5.2228,5.2231,5.2119,5.2123,5.2126,5.2128,0,0,0,0,0,0,0,5.1894,5.1907,5.2047,5.1998,5.1996,5.198,5.1986,5.2066,5.2066,5.2011,5.2006,5.2016,5.2074,5.2099,5.2107,5.2232,5.2119,5.2125,5.2129,5.2132,5.2465,5.247,0,0,0,0,0,0,5.1891,5.1903,5.2045,5.205,5.1935,5.1987,5.1994,5.2031,5.2065,5.2066,5.2019,5.2012,5.209,5.2099,5.2109,5.2262,5.2126,5.2133,5.2137,5.2461,5.2466,5.2471,0,0,0,0,0,0,5.1887,5.1904,5.2042,5.1975,5.1991,5.1995,5.2037,5.2035,5.206,5.2071,5.2071,5.2045,5.2087,5.21,5.2197,5.2264,5.2136,5.2142,5.2455,5.2462,5.2469,5.2567,0,0,0,0,0,0,5.1881,5.1903,5.195,5.1977,5.1995,5.2128,5.2041,5.2039,5.2072,5.2063,5.2095,5.2096,5.2084,5.2187,5.2204,5.2271,5.2148,5.2449,5.2458,5.2467,5.2558,5.2577,5.2593,0,0,0,0,0,5.1875,5.1975,5.1953,5.1971,5.2055,5.2132,5.2142,5.2127,5.2077,5.2126,5.2133,5.2095,5.2254,5.2198,5.2216,5.2286,5.2445,5.2456,5.2466,5.255,5.2573,5.2592,0,0,0,0,0,0,5.1956,5.1978,5.1954,5.2066,5.2098,5.212,5.218,5.2151,5.2198,5.2188,5.2167,5.2175,5.2278,5.2292,5.2229,5.2412,5.2341,5.2356,5.2399,5.2421,5.2438,5.2433,5.2153,0,0,0,0,0,5.1987,5.2048,5.2063,5.2161,5.2178,5.2177,5.221,5.2195,5.2227,5.224,5.2255,5.2288,5.2346,5.2384,5.2438,5.256,5.2567,5.2617,5.2635,5.2649,5.2662,5.273,5.2753,5.2506,5.2506,5.2506,0,0,5.2052,5.2071,5.2111,5.2178,5.2201,5.2265,5.2188,5.2259,5.2306,5.2251,5.2344,5.2356,5.2392,5.2503,5.2553,5.2518,5.2732,5.2662,5.2674,5.2679,5.2743,5.2766,5.2787,5.2513,5.2512,5.2511,0,0,5.2203,5.2223,5.2307,5.2332,5.2368,5.2367,5.2387,5.2414,5.242,5.2513,5.2474,5.2531,5.263,5.2658,5.2685,5.2849,5.2816,5.2867,5.2958,5.3024,5.3044,5.3061,5.3121,5.3142,5.288,5.2881,5.2881,0,5.2279,5.2373,5.2354,5.2428,5.2459,5.2413,5.2499,5.2524,5.2576,5.2599,5.2559,5.2684,5.2705,5.2823,5.2863,5.2886,5.291,5.2863,5.3042,5.3059,5.3075,5.3132,5.3155,5.2887,5.2886,5.2885,5.2885,0,5.2465,5.2531,5.2595,5.2647,5.2685,5.2765,5.2759,5.2801,5.2784,5.2787,5.2884,5.2908,5.2966,5.2993,5.2976,5.311,5.3087,5.3045,5.2974,5.3105,5.3158,5.318,5.2895,5.2893,5.2891,5.289,0,0,5.2668,5.271,5.2733,5.2757,5.2794,5.2846,5.2924,5.2981,5.3018,5.3056,5.3122,5.3208,5.3171,5.3202,5.3188,5.3247,5.3377,5.3198,5.3199,5.3231,5.3527,5.3558,5.3584,5.3356,5.336,5.3363,5.3524,0,5.2821,5.2956,5.2942,5.3072,5.3134,5.3092,5.316,5.3191,5.3198,5.3252,5.3259,5.3321,5.3265,5.3284,5.334,5.335,5.3437,5.3338,5.3418,5.3422,5.3411,5.3611,5.3644,5.3795,5.3545,5.3548,5.3551,0,5.3016,5.3061,5.3197,5.3227,5.3252,5.3314,5.3366,5.3418,5.3454,5.3454,5.3491,5.3468,5.3548,5.3476,5.3587,5.3521,5.3553,5.3563,5.3569,5.3576,5.3494,5.3624,5.3843,5.3866,5.3583,5.3581,5.3578,0,5.3152,5.3247,5.3341,5.3362,5.3399,5.3444,5.3461,5.3492,5.3528,5.3575,5.3598,5.3653,5.3684,5.3728,5.3721,5.3668,5.3836,5.3762,5.3839,5.384,5.3876,5.3874,5.4103,5.3897,5.3896,5.3896,5.3896,0,5.3324,5.3409,5.3402,5.346,5.3555,5.3539,5.3634,5.3646,5.3675,5.3735,5.3702,5.376,5.3748,5.3806,5.3801,5.3896,5.3909,5.3913,5.3911,5.3916,5.3916,5.3937,5.3926,5.3902,5.3901,5.39,5.3898,0,5.3491,5.349,5.359,5.3617,5.3626,5.3695,5.3718,5.3774,5.3778,5.3855,5.3872,5.3879,5.3946,5.3944,5.402,5.4017,5.4133,5.4118,5.4121,5.4118,5.4196,5.4189,5.4447,5.4481,5.4252,5.4254,5.4256,0,5.3601,5.3665,5.37,5.3738,5.3758,5.382,5.3857,5.3845,5.3885,5.3931,5.3982,5.4045,5.4096,5.4205,5.4217,5.4276,5.4263,5.4349,5.4271,5.4275,5.4265,5.4261,5.4268,5.4364,5.4367,5.4369,5.4371,0,5.3796,5.3793,5.3847,5.3902,5.3947,5.3989,5.4028,5.4061,5.4054,5.4101,5.4169,5.4208,5.4286,5.435,5.4407,5.4426,5.4398,5.4395,5.4417,5.4423,5.4422,5.4424,5.4163,5.4389,5.4387,5.4386,5.4385,5.4384,5.3938,5.3994,5.4028,5.409,5.4118,5.4156,5.421,5.4221,5.4277,5.434,5.433,5.4406,5.4442,5.4515,5.454,5.46,5.457,5.46,5.4608,5.4616,5.4625,5.4412,5.4611,5.461,5.461,5.4609,5.4609,0,5.4133,5.4153,5.421,5.4266,5.4315,5.4284,5.4327,5.437,5.4438,5.4473,5.4524,5.4603,5.4666,5.4684,5.4745,5.479,5.4779,5.4807,5.4803,5.4809,5.4648,5.4624,5.4815,5.4815,5.4815,5.4815,5.4815,5.4815,5.424,5.4333,5.4335,5.4443,5.4463,5.4537,5.4564,5.4599,5.4628,5.4718,5.477,5.4781,5.481,5.4874,5.4931,5.4934,5.4959,5.4992,5.4991,5.484,5.482,5.48,5.4777,5.4997,5.4997,5.5146,5.5147,5.5148]},{"header":{"parameterUnit":"m.s-1","parameterCategory":1,"la1":30.2991,"la2":30.254,"lo1":-89.0895,"lo2":-89.0444,"dy":0.0017,"dx":0.0017,"nx":28,"ny":28,"refTime":"2025-03-15T03:00:00:Z","depth":0,"parameterNumber":3,"parameterNumberName":"V-component_of_WINDS"},"data":[0,0,0,0,0,0,0,0,0,0,0,0,0,0,0,0,0,0,0,0,0,0,0,0,0,0,0,0,0,0,0,0,0,0,0,0,0,0,0,0,0,0,0,0,0,0,0,0,0,0,0,0,0,0,0,0,0,0,-3.7681,-3.7681,0,-3.7711,-3.7711,-3.7711,-3.7709,-3.7708,-3.7708,-3.7707,-3.7736,-3.7737,-3.7738,0,0,0,0,0,0,0,0,0,0,0,0,0,-3.7618,-3.762,-3.7681,-3.7681,-3.7681,-3.7711,-3.7711,-3.7712,-3.7709,-3.7708,-3.7708,-3.7707,-3.7735,-3.7737,-3.7738,0,0,0,0,0,0,0,0,0,0,0,0,0,-3.7647,-3.762,-3.7681,-3.7684,-3.7684,-3.7711,-3.7711,-3.7712,-3.7709,-3.7708,-3.7708,-3.7707,-3.7735,-3.7736,-3.7738,-3.7763,0,0,-3.7744,-3.7744,0,0,0,0,0,0,0,0,-3.7645,-3.7649,-3.7683,-3.7683,-3.7684,-3.7705,-3.77,-3.7729,-3.7709,-3.7699,-3.7707,-3.7707,-3.7726,-3.7728,-3.7735,-3.7764,-3.7765,-3.7744,-3.7745,-3.7745,-3.7746,0,0,0,0,0,0,0,-3.7643,-3.7648,-3.7692,-3.7683,-3.7684,-3.7683,-3.7686,-3.7705,-3.7716,-3.77,-3.77,-3.7704,-3.7726,-3.7734,-3.7736,-3.7766,-3.7744,-3.7745,-3.7746,-3.7747,-3.7816,-3.7816,0,0,0,0,0,0,-3.7641,-3.7646,-3.7692,-3.7693,-3.7663,-3.7684,-3.7688,-3.7699,-3.7716,-3.7718,-3.7704,-3.7704,-3.7731,-3.7734,-3.7737,-3.7766,-3.7745,-3.7747,-3.7748,-3.7815,-3.7816,-3.7817,0,0,0,0,0,0,-3.7639,-3.7645,-3.769,-3.767,-3.7675,-3.7686,-3.7699,-3.77,-3.7708,-3.7719,-3.7721,-3.771,-3.7731,-3.7734,-3.7756,-3.7767,-3.7748,-3.775,-3.7814,-3.7815,-3.7816,-3.7826,0,0,0,0,0,0,-3.7638,-3.7644,-3.7654,-3.767,-3.7677,-3.771,-3.7699,-3.7701,-3.7711,-3.771,-3.7725,-3.7727,-3.773,-3.7754,-3.7758,-3.7769,-3.7751,-3.7813,-3.7815,-3.7816,-3.7825,-3.7827,-3.7829,0,0,0,0,0,-3.7635,-3.7655,-3.7655,-3.766,-3.7689,-3.7711,-3.7714,-3.7719,-3.7712,-3.7722,-3.7729,-3.7726,-3.7766,-3.7756,-3.7761,-3.7773,-3.7812,-3.7814,-3.7816,-3.7823,-3.7827,-3.7829,0,0,0,0,0,0,-3.7639,-3.7657,-3.7657,-3.7683,-3.7695,-3.771,-3.7722,-3.7722,-3.7736,-3.7735,-3.7739,-3.7742,-3.7764,-3.7771,-3.776,-3.7798,-3.7788,-3.7791,-3.7792,-3.7795,-3.7798,-3.7795,-3.7752,0,0,0,0,0,-3.7643,-3.766,-3.7674,-3.7696,-3.7702,-3.7711,-3.7721,-3.7723,-3.7736,-3.7741,-3.775,-3.7762,-3.7777,-3.7787,-3.7801,-3.7826,-3.7829,-3.7837,-3.7839,-3.7841,-3.7843,-3.7856,-3.786,-3.7822,-3.7822,-3.7822,0,0,-3.7651,-3.7663,-3.7673,-3.7697,-3.7707,-3.7723,-3.7716,-3.7733,-3.7745,-3.7743,-3.7765,-3.7772,-3.7785,-3.7809,-3.782,-3.7815,-3.7854,-3.7843,-3.7845,-3.7846,-3.7858,-3.7862,-3.7865,-3.7824,-3.7823,-3.7823,0,0,-3.7674,-3.7685,-3.7704,-3.7715,-3.773,-3.7737,-3.7741,-3.7756,-3.7761,-3.7783,-3.7782,-3.7796,-3.7822,-3.7832,-3.784,-3.7868,-3.7866,-3.7873,-3.7885,-3.7897,-3.79,-3.7903,-3.7912,-3.7915,-3.7875,-3.7875,-3.7875,0,-3.7682,-3.7707,-3.7713,-3.7731,-3.7741,-3.7742,-3.7761,-3.777,-3.779,-3.7796,-3.7791,-3.7824,-3.7834,-3.7859,-3.7866,-3.7873,-3.7878,-3.787,-3.79,-3.7902,-3.7905,-3.7913,-3.7917,-3.7875,-3.7875,-3.7875,-3.7875,0,-3.7715,-3.7733,-3.7746,-3.7766,-3.7778,-3.7796,-3.7804,-3.7815,-3.7817,-3.7824,-3.7846,-3.7857,-3.7874,-3.788,-3.7882,-3.7906,-3.7903,-3.7899,-3.7889,-3.7909,-3.7917,-3.7921,-3.7876,-3.7876,-3.7876,-3.7876,0,0,-3.774,-3.7764,-3.7769,-3.7778,-3.7796,-3.7809,-3.7827,-3.7845,-3.7854,-3.7867,-3.7882,-3.7905,-3.7901,-3.7911,-3.7914,-3.7925,-3.7945,-3.792,-3.792,-3.7923,-3.7972,-3.7974,-3.7978,-3.7945,-3.7945,-3.7946,-3.7971,0,-3.7764,-3.7797,-3.7804,-3.7832,-3.7848,-3.7849,-3.7865,-3.7877,-3.7884,-3.7898,-3.7905,-3.7921,-3.7916,-3.7922,-3.7933,-3.7941,-3.7955,-3.7939,-3.7957,-3.7958,-3.7953,-3.7982,-3.7985,-3.8007,-3.7974,-3.7975,-3.7975,0,-3.7796,-3.7811,-3.7842,-3.7858,-3.7865,-3.7879,-3.7896,-3.791,-3.7923,-3.7928,-3.7939,-3.7941,-3.7959,-3.7949,-3.7974,-3.7963,-3.7971,-3.7976,-3.7977,-3.7978,-3.7967,-3.7983,-3.8015,-3.8018,-3.798,-3.798,-3.7979,0,-3.781,-3.7838,-3.786,-3.7868,-3.7888,-3.7897,-3.7906,-3.7919,-3.793,-3.7944,-3.7951,-3.7967,-3.7975,-3.7987,-3.7993,-3.7986,-3.8017,-3.8008,-3.802,-3.802,-3.8025,-3.8025,-3.8058,-3.8033,-3.8033,-3.8032,-3.8032,0,-3.7835,-3.7853,-3.7867,-3.788,-3.79,-3.7908,-3.7927,-3.7935,-3.7948,-3.7962,-3.7964,-3.7977,-3.7985,-3.7999,-3.8004,-3.8023,-3.8027,-3.803,-3.8031,-3.8029,-3.8029,-3.8034,-3.8032,-3.8033,-3.8033,-3.8033,-3.8033,0,-3.7853,-3.7863,-3.7887,-3.7904,-3.7909,-3.7923,-3.7937,-3.795,-3.7957,-3.7975,-3.798,-3.7991,-3.8008,-3.8016,-3.8036,-3.8039,-3.8061,-3.8061,-3.8056,-3.8056,-3.8068,-3.8066,-3.8104,-3.8109,-3.8081,-3.8082,-3.8082,0,-3.7868,-3.7883,-3.7902,-3.7912,-3.7921,-3.7938,-3.7948,-3.7956,-3.7967,-3.7985,-3.7995,-3.8012,-3.8026,-3.8053,-3.8062,-3.8078,-3.8078,-3.809,-3.808,-3.8078,-3.8077,-3.8076,-3.8077,-3.8091,-3.8092,-3.8092,-3.8092,0,-3.7894,-3.7898,-3.7914,-3.7932,-3.7945,-3.7959,-3.7973,-3.7981,-3.7991,-3.8003,-3.8021,-3.8032,-3.8054,-3.807,-3.8087,-3.8094,-3.8095,-3.8096,-3.8099,-3.8097,-3.8093,-3.8094,-3.806,-3.8094,-3.8094,-3.8094,-3.8094,-3.8094,-3.791,-3.7923,-3.7939,-3.7956,-3.7968,-3.7981,-3.7994,-3.8003,-3.8018,-3.8037,-3.8041,-3.806,-3.8073,-3.8096,-3.8104,-3.8118,-3.8115,-3.812,-3.8122,-3.8122,-3.8123,-3.8092,-3.8122,-3.8122,-3.8122,-3.8121,-3.8121,0,-3.7935,-3.7945,-3.7962,-3.7981,-3.7995,-3.7996,-3.8011,-3.8023,-3.8039,-3.8053,-3.8067,-3.8087,-3.8104,-3.8115,-3.8132,-3.8141,-3.8141,-3.8145,-3.8143,-3.8145,-3.8125,-3.812,-3.8144,-3.8144,-3.8144,-3.8144,-3.8144,-3.8144,-3.7949,-3.797,-3.7977,-3.8004,-3.8014,-3.8033,-3.8042,-3.8054,-3.8065,-3.8088,-3.8102,-3.811,-3.8122,-3.8139,-3.8154,-3.8157,-3.8163,-3.8166,-3.8169,-3.8149,-3.8147,-3.8144,-3.814,-3.8167,-3.8168,-3.8188,-3.8188,-3.8188]}]]